Change the Weather History Date:

Saturday, November 5, 2011

  Actual Average Record
Temperature  
Mean Temperature 39 °F -  
Max Temperature 50 °F 50 °F 69 °F (2010)
Min Temperature 29 °F 27 °F 13 °F (2013)
Degree Days  
Heating Degree Days 26    
Moisture  
Dew Point 26 °F    
Average Humidity 57    
Maximum Humidity 83    
Minimum Humidity 30    
Precipitation  
Precipitation 0.06 in - - ()
Sea Level Pressure  
Sea Level Pressure 29.36 in    
Wind  
Wind Speed 9 mph (WSW)    
Max Wind Speed 31 mph    
Max Gust Speed 47 mph    
Visibility 10 miles    
Events Rain    
Averages and records for this station are not official NWS values.
T = Trace of Precipitation, MM = Missing Value Source: NWS Daily Summary

Daily Weather History Graph

Daily Weather History Graph

Search for Another Location

Airport or City:

Trip Planner

Search our weather history database for the weather conditions in past years. The results will help you decide how hot, cold, wet, or windy it might be!

Date:

Astronomy

Nov. 05, 2011 Rise Set
Actual Time 7:30 AM MDT 5:54 PM MDT
Civil Twilight 7:02 AM MDT 6:22 PM MDT
Nautical Twilight 6:31 AM MDT 6:53 PM MDT
Astronomical Twilight 5:59 AM MDT 7:25 PM MDT
Moon 3:11 PM MDT (11/5) 2:45 AM MDT (11/5)
Length of Visible Light 11h 19m
Length of Day
10h 23m
Waxing Gibbous, 78% of the Moon is Illuminated
Nov 5
Waxing Gibbous
Nov 10
Full
Nov 18
Last Quarter
Nov 24
New
Dec 2
First Quarter

Hourly Weather History & Observations

Time (MDT) Temp. Windchill Dew Point Humidity Pressure Visibility Wind Dir Wind Speed Gust Speed Precip Events Conditions
12:55 AM 31.8 °F 25.4 °F 26.8 °F 82% 29.55 in 10.0 mi North 6.9 mph - N/A   Clear
1:55 AM 29.8 °F - 25.2 °F 83% 29.51 in 10.0 mi Calm Calm - N/A   Clear
2:55 AM 32.0 °F 28.7 °F 26.1 °F 79% 29.47 in 10.0 mi North 3.5 mph - N/A   Clear
3:55 AM 30.4 °F 22.9 °F 25.3 °F 82% 29.46 in 10.0 mi NNW 8.1 mph - N/A   Clear
4:55 AM 30.6 °F - 25.3 °F 81% 29.46 in 10.0 mi Calm Calm - N/A   Clear
5:55 AM 34.7 °F 26.9 °F 27.9 °F 76% 29.42 in 10.0 mi South 10.4 mph - N/A   Clear
6:55 AM 36.0 °F 28.0 °F 27.3 °F 71% 29.37 in 10.0 mi South 11.5 mph - N/A   Clear
7:55 AM 35.2 °F 31.2 °F 26.6 °F 71% 29.39 in 10.0 mi South 4.6 mph - N/A   Clear
8:55 AM 41.7 °F 36.1 °F 27.7 °F 58% 29.34 in 10.0 mi South 9.2 mph - N/A   Clear
9:55 AM 42.8 °F 38.0 °F 27.9 °F 56% 29.31 in 10.0 mi South 8.1 mph - N/A   Partly Cloudy
10:55 AM 45.7 °F 43.4 °F 28.6 °F 51% 29.30 in 10.0 mi Variable 4.6 mph - N/A   Clear
11:55 AM 48.0 °F - 30.0 °F 50% 29.30 in 10.0 mi WSW 6.9 mph - N/A   Scattered Clouds
12:14 PM 44.6 °F 38.1 °F 33.8 °F 66% 29.37 in 6.0 mi WSW 13.8 mph 31.1 mph N/A Rain Light Rain
12:32 PM 41.0 °F 35.2 °F 33.8 °F 76% 29.34 in 10.0 mi East 9.2 mph - N/A   Scattered Clouds
12:55 PM 42.6 °F 35.6 °F 36.3 °F 78% 29.31 in 10.0 mi East 13.8 mph - 0.01 in   Partly Cloudy
1:55 PM 48.2 °F - 33.6 °F 57% 29.25 in 10.0 mi South 9.2 mph - N/A   Partly Cloudy
2:55 PM 49.5 °F - 31.1 °F 49% 29.19 in 10.0 mi SE 11.5 mph - N/A   Clear
3:52 PM 46.4 °F 39.8 °F 28.4 °F 50% 29.23 in 10.0 mi West 16.1 mph 32.2 mph N/A   Partly Cloudy
3:55 PM 46.4 °F 41.1 °F 27.0 °F 47% 29.24 in 10.0 mi WNW 11.5 mph 32.2 mph 0.01 in   Scattered Clouds
4:29 PM 46.4 °F 37.0 °F 26.6 °F 46% 29.19 in 10.0 mi West 31.1 mph 42.6 mph N/A   Scattered Clouds
4:55 PM 46.4 °F 37.2 °F 25.3 °F 44% 29.21 in 10.0 mi West 29.9 mph 47.2 mph 0.03 in   Mostly Cloudy
5:55 PM 47.3 °F - 23.5 °F 39% 29.27 in 10.0 mi West 19.6 mph 33.4 mph N/A   Clear
6:55 PM 44.2 °F 35.0 °F 21.2 °F 40% 29.37 in 10.0 mi West 25.3 mph 42.6 mph 0.01 in   Clear
7:55 PM 43.7 °F 40.3 °F 18.0 °F 36% 29.43 in 10.0 mi NNW 5.8 mph 25.3 mph N/A   Clear
8:55 PM 41.4 °F 36.2 °F 17.2 °F 38% 29.43 in 10.0 mi West 8.1 mph 19.6 mph N/A   Clear
9:55 PM 40.1 °F 32.7 °F 15.8 °F 37% 29.47 in 10.0 mi West 12.7 mph 24.2 mph N/A   Clear
10:55 PM 38.7 °F 32.4 °F 13.3 °F 35% 29.48 in 10.0 mi SSW 9.2 mph 33.4 mph N/A   Clear
11:55 PM 38.7 °F 36.3 °F 9.5 °F 30% 29.51 in 10.0 mi Variable 3.5 mph - N/A   Clear